TimeCST,TemperatureF,Dew PointF,Humidity,Sea Level PressureIn,VisibilityMPH,Wind Direction,Wind SpeedMPH,Gust SpeedMPH,PrecipitationIn,Events,Conditions,WindDirDegrees,DateUTC
12:15 AM,15.8,6.8,68,29.54,10.0,NW,31.1,35.7,N/A,,Partly Cloudy,310,2014-02-21 06:15:00
12:35 AM,15.8,6.8,68,29.54,10.0,NW,28.8,39.1,N/A,,Scattered Clouds,310,2014-02-21 06:35:00
12:55 AM,15.8,6.8,68,29.54,10.0,NW,31.1,38.0,N/A,,Mostly Cloudy,310,2014-02-21 06:55:00
1:15 AM,15.8,6.8,68,29.53,10.0,NW,33.4,39.1,N/A,,Scattered Clouds,310,2014-02-21 07:15:00
1:35 AM,14.0,6.8,73,29.53,10.0,NW,31.1,36.8,N/A,,Partly Cloudy,310,2014-02-21 07:35:00
1:55 AM,14.0,5.0,67,29.54,10.0,NW,27.6,44.9,N/A,,Clear,310,2014-02-21 07:55:00
2:15 AM,14.0,5.0,67,29.54,10.0,NW,27.6,35.7,N/A,,Clear,310,2014-02-21 08:15:00
2:35 AM,14.0,5.0,67,29.54,10.0,NW,29.9,36.8,N/A,,Clear,310,2014-02-21 08:35:00
2:55 AM,14.0,5.0,67,29.54,10.0,NW,27.6,33.4,N/A,,Clear,310,2014-02-21 08:55:00
3:15 AM,14.0,5.0,67,29.54,10.0,NW,26.5,32.2,N/A,,Clear,310,2014-02-21 09:15:00
3:35 AM,12.2,5.0,73,29.55,10.0,NW,26.5,33.4,N/A,,Clear,310,2014-02-21 09:35:00
3:55 AM,12.2,3.2,67,29.55,10.0,NW,26.5,31.1,N/A,,Clear,310,2014-02-21 09:55:00
4:15 AM,12.2,3.2,67,29.55,10.0,NW,27.6,35.7,N/A,,Clear,310,2014-02-21 10:15:00
4:35 AM,12.2,3.2,67,29.57,10.0,NW,26.5,31.1,N/A,,Clear,310,2014-02-21 10:35:00
4:55 AM,12.2,3.2,67,29.58,10.0,NW,26.5,-,N/A,,Clear,310,2014-02-21 10:55:00
5:15 AM,12.2,3.2,67,29.59,10.0,WNW,25.3,31.1,N/A,,Clear,300,2014-02-21 11:15:00
5:35 AM,12.2,3.2,67,29.59,10.0,WNW,24.2,-,N/A,,Clear,300,2014-02-21 11:35:00
5:55 AM,12.2,3.2,67,29.59,10.0,NW,26.5,29.9,N/A,,Clear,310,2014-02-21 11:55:00
6:15 AM,10.4,3.2,73,29.60,10.0,WNW,23.0,29.9,N/A,,Clear,300,2014-02-21 12:15:00
6:35 AM,10.4,1.4,67,29.60,10.0,WNW,23.0,28.8,N/A,,Clear,290,2014-02-21 12:35:00
6:55 AM,10.4,1.4,67,29.60,10.0,WNW,26.5,31.1,N/A,,Clear,290,2014-02-21 12:55:00
7:15 AM,10.4,1.4,67,29.61,10.0,WNW,23.0,-,N/A,,Clear,290,2014-02-21 13:15:00
7:35 AM,10.4,1.4,67,29.61,10.0,WNW,21.9,27.6,N/A,,Clear,290,2014-02-21 13:35:00
7:55 AM,10.4,1.4,67,29.62,10.0,WNW,21.9,27.6,N/A,,Clear,290,2014-02-21 13:55:00
8:15 AM,10.4,1.4,67,29.62,10.0,WNW,23.0,28.8,N/A,,Clear,290,2014-02-21 14:15:00
8:35 AM,12.2,3.2,67,29.62,10.0,WNW,25.3,29.9,N/A,,Clear,300,2014-02-21 14:35:00
8:55 AM,12.2,3.2,67,29.62,10.0,WNW,23.0,-,N/A,,Clear,300,2014-02-21 14:55:00
9:15 AM,14.0,5.0,67,29.62,10.0,WNW,27.6,32.2,N/A,,Clear,300,2014-02-21 15:15:00
9:35 AM,15.8,5.0,62,29.62,10.0,NW,26.5,34.5,N/A,,Clear,310,2014-02-21 15:35:00
9:55 AM,15.8,6.8,68,29.62,10.0,NW,28.8,32.2,N/A,,Clear,310,2014-02-21 15:55:00
10:15 AM,17.6,6.8,63,29.62,10.0,NW,27.6,31.1,N/A,,Clear,310,2014-02-21 16:15:00
10:35 AM,17.6,6.8,63,29.63,10.0,NW,23.0,-,N/A,,Clear,310,2014-02-21 16:35:00
10:55 AM,17.6,8.6,68,29.63,10.0,NW,23.0,28.8,N/A,,Clear,310,2014-02-21 16:55:00
11:15 AM,19.4,8.6,63,29.64,10.0,NW,24.2,28.8,N/A,,Clear,310,2014-02-21 17:15:00
11:35 AM,19.4,8.6,63,29.64,10.0,NW,23.0,29.9,N/A,,Clear,310,2014-02-21 17:35:00
11:55 AM,21.2,8.6,58,29.64,10.0,NW,26.5,32.2,N/A,,Clear,320,2014-02-21 17:55:00
12:15 PM,21.2,10.4,63,29.65,10.0,NW,21.9,31.1,N/A,,Clear,310,2014-02-21 18:15:00
12:35 PM,21.2,10.4,63,29.64,10.0,NW,23.0,-,N/A,,Clear,310,2014-02-21 18:35:00
12:55 PM,21.2,10.4,63,29.64,10.0,NW,27.6,-,N/A,,Partly Cloudy,310,2014-02-21 18:55:00
1:15 PM,23.0,10.4,59,29.64,10.0,WNW,23.0,29.9,N/A,,Partly Cloudy,300,2014-02-21 19:15:00
1:35 PM,23.0,10.4,59,29.64,10.0,NW,24.2,31.1,N/A,,Clear,310,2014-02-21 19:35:00
1:55 PM,23.0,12.2,63,29.64,10.0,NW,21.9,-,N/A,,Clear,310,2014-02-21 19:55:00
2:15 PM,23.0,12.2,63,29.65,10.0,NW,25.3,-,N/A,,Clear,310,2014-02-21 20:15:00
2:35 PM,23.0,10.4,59,29.66,10.0,WNW,21.9,-,N/A,,Clear,300,2014-02-21 20:35:00
2:55 PM,24.8,10.4,54,29.67,10.0,WNW,23.0,32.2,N/A,,Partly Cloudy,290,2014-02-21 20:55:00
3:15 PM,24.8,10.4,54,29.68,10.0,NW,20.7,27.6,N/A,,Partly Cloudy,310,2014-02-21 21:15:00
3:35 PM,24.8,10.4,54,29.69,10.0,NW,23.0,-,N/A,,Clear,310,2014-02-21 21:35:00
3:55 PM,24.8,10.4,54,29.70,10.0,WNW,23.0,28.8,N/A,,Clear,300,2014-02-21 21:55:00
4:15 PM,24.8,10.4,54,29.70,10.0,NW,24.2,-,N/A,,Clear,310,2014-02-21 22:15:00
4:35 PM,24.8,10.4,54,29.71,10.0,WNW,21.9,26.5,N/A,,Clear,300,2014-02-21 22:35:00
4:55 PM,24.8,10.4,54,29.72,10.0,NW,24.2,-,N/A,,Clear,310,2014-02-21 22:55:00
5:15 PM,23.0,8.6,54,29.72,10.0,WNW,20.7,-,N/A,,Clear,300,2014-02-21 23:15:00
5:35 PM,23.0,8.6,54,29.73,10.0,WNW,19.6,26.5,N/A,,Clear,300,2014-02-21 23:35:00
5:55 PM,21.2,10.4,63,29.73,10.0,WNW,17.3,-,N/A,,Clear,300,2014-02-21 23:55:00
6:15 PM,21.2,10.4,63,29.74,10.0,WNW,15.0,-,N/A,,Clear,300,2014-02-22 00:15:00
6:35 PM,21.2,8.6,58,29.75,10.0,WNW,13.8,-,N/A,,Clear,300,2014-02-22 00:35:00
6:55 PM,19.4,10.4,68,29.76,10.0,WNW,10.4,-,N/A,,Clear,290,2014-02-22 00:55:00
7:15 PM,19.4,8.6,63,29.77,10.0,WNW,11.5,-,N/A,,Clear,290,2014-02-22 01:15:00
7:35 PM,19.4,8.6,63,29.77,10.0,WNW,11.5,-,N/A,,Clear,290,2014-02-22 01:35:00
7:55 PM,17.6,8.6,68,29.77,10.0,WNW,11.5,-,N/A,,Clear,290,2014-02-22 01:55:00
8:15 PM,17.6,8.6,68,29.78,10.0,WNW,10.4,-,N/A,,Clear,290,2014-02-22 02:15:00
8:35 PM,17.6,8.6,68,29.78,10.0,WNW,9.2,-,N/A,,Clear,300,2014-02-22 02:35:00
8:55 PM,17.6,6.8,63,29.79,10.0,WNW,12.7,-,N/A,,Clear,290,2014-02-22 02:55:00
9:15 PM,17.6,6.8,63,29.79,10.0,WNW,11.5,-,N/A,,Clear,300,2014-02-22 03:15:00
9:35 PM,15.8,6.8,68,29.79,10.0,WNW,11.5,-,N/A,,Clear,300,2014-02-22 03:35:00
9:55 PM,15.8,6.8,68,29.79,10.0,WNW,10.4,-,N/A,,Clear,300,2014-02-22 03:55:00
10:15 PM,15.8,6.8,68,29.79,10.0,WNW,12.7,-,N/A,,Clear,300,2014-02-22 04:15:00
10:35 PM,15.8,5.0,62,29.81,10.0,WNW,11.5,-,N/A,,Clear,300,2014-02-22 04:35:00
10:55 PM,15.8,5.0,62,29.81,10.0,WNW,12.7,-,N/A,,Clear,300,2014-02-22 04:55:00
11:15 PM,14.0,5.0,67,29.81,10.0,WNW,11.5,-,N/A,,Clear,300,2014-02-22 05:15:00
11:35 PM,14.0,3.2,62,29.83,10.0,WNW,11.5,-,N/A,,Clear,290,2014-02-22 05:35:00
11:55 PM,14.0,3.2,62,29.83,10.0,WNW,11.5,-,N/A,,Clear,300,2014-02-22 05:55:00